EDT,Max TemperatureF,Mean TemperatureF,Min TemperatureF,Max Dew PointF,MeanDew PointF,Min DewpointF,Max Humidity, Mean Humidity, Min Humidity, Max Sea Level PressureIn, Mean Sea Level PressureIn, Min Sea Level PressureIn, Max VisibilityMiles, Mean VisibilityMiles, Min VisibilityMiles, Max Wind SpeedMPH, Mean Wind SpeedMPH, Max Gust SpeedMPH,PrecipitationIn, CloudCover, Events, WindDirDegrees
2013-4-1,62,50,37,54,42,36,100,74,41,30.06,29.97,29.88,10,8,0,17,3,31,0.00,4,Fog,279
2013-4-2,59,46,32,37,26,16,99,53,23,30.17,30.12,30.05,10,10,7,12,2,17,0.00,3,,207
2013-4-3,60,47,34,38,29,21,80,49,28,30.20,30.16,30.11,10,10,10,10,2,,0.00,5,,283
2013-4-4,46,43,40,42,39,35,97,88,65,30.17,30.06,29.94,10,8,2,9,1,16,0.08,8,Rain,93
2013-4-5,60,48,37,42,38,28,99,71,29,30.11,30.00,29.94,10,9,2,12,3,20,0.00,4,,29
2013-4-6,68,49,30,39,34,29,99,61,25,30.20,30.14,30.09,10,10,7,13,2,17,0.00,0,,186
2013-4-7,70,52,35,45,40,34,95,61,35,30.21,30.14,30.08,10,10,10,14,3,22,0.00,1,,236
2013-4-8,73,58,44,52,48,43,95,68,41,30.16,30.11,30.07,10,10,10,15,3,24,0.00,4,,244
2013-4-9,80,62,45,56,51,44,97,69,38,30.21,30.16,30.10,10,10,7,12,2,20,0.00,3,,242
2013-4-10,84,65,46,58,52,46,99,67,34,30.16,30.07,29.96,10,9,1,15,3,18,0.00,0,,247
2013-4-11,78,68,58,63,56,51,97,70,42,29.97,29.87,29.70,10,9,2,15,5,24,0.00,6,Rain,225
2013-4-12,64,54,43,59,47,36,97,70,41,29.97,29.80,29.66,10,9,2,14,5,21,0.00,3,Rain,257
2013-4-13,71,52,34,43,36,32,97,62,25,30.07,30.01,29.97,10,10,10,16,2,20,0.00,0,,71
2013-4-14,68,52,36,49,41,35,97,75,32,30.09,30.03,29.96,10,10,10,9,1,21,0.00,3,Rain,188
2013-4-15,61,56,52,54,51,49,94,86,75,30.18,30.02,29.95,10,10,7,6,2,,0.00,6,,322
2013-4-16,80,64,47,61,55,47,99,73,44,30.25,30.20,30.16,10,10,7,10,2,16,0.00,3,,253
2013-4-17,79,69,59,63,60,56,97,83,55,30.26,30.21,30.11,10,10,2,17,2,,0.12,7,Rain,315
2013-4-18,75,66,58,60,57,54,100,75,50,30.12,30.06,29.93,10,10,5,16,3,23,0.00,6,,192
2013-4-19,69,54,38,62,51,35,94,77,65,30.06,29.87,29.78,10,10,4,22,10,37,0.00,6,Rain,222
2013-4-20,59,46,32,35,30,27,93,57,31,30.27,30.17,30.06,10,10,10,14,5,21,0.00,0,,42
2013-4-21,67,50,32,39,33,29,98,57,28,30.36,30.31,30.24,10,10,10,9,2,17,0.00,0,,135
2013-4-22,70,52,34,42,37,33,97,64,27,30.36,30.25,30.13,10,10,5,10,2,18,0.00,0,,216
2013-4-23,72,54,35,47,41,34,98,64,34,30.24,30.16,30.06,10,10,7,14,2,17,0.00,0,,252
2013-4-24,68,57,46,59,51,43,94,82,58,30.17,30.10,30.06,10,10,5,16,3,24,0.03,7,Rain,240
2013-4-25,65,49,33,48,35,24,99,63,21,30.36,30.25,30.17,10,10,10,12,4,18,0.00,1,,348
2013-4-26,72,52,31,47,36,30,99,60,24,30.41,30.34,30.26,10,10,7,12,2,17,0.00,2,Rain,245
2013-4-27,55,52,50,53,50,46,99,92,69,30.39,30.30,30.18,10,8,4,7,1,,0.28,8,Rain,349
2013-4-28,56,54,52,55,52,49,99,94,78,30.19,30.10,29.99,10,8,2,10,2,25,0.07,8,Rain,271
2013-4-29,72,61,50,55,52,48,100,80,44,30.05,30.01,29.95,10,8,0,13,2,18,0.00,4,Fog,239
2013-4-30,77,59,41,56,50,41,100,75,39,30.14,30.05,30.00,10,8,0,10,1,12,0.00,3,Fog,245